Time,TemperatureF,DewpointF,PressureIn,WindDirection,WindDirectionDegrees,WindSpeedMPH,WindSpeedGustMPH,Humidity,HourlyPrecipIn,Conditions,Clouds,dailyrainin,SoftwareType,DateUTC
2013-05-05 00:01:00,50.5,41.9,29.99,North,0,0.0,0.0,72,0.00,,,0.00,WUHU216WMR100,2013-05-05 05:01:00,
2013-05-05 00:06:00,50.2,41.6,29.99,North,0,0.0,0.0,72,0.00,,,0.00,WUHU216WMR100,2013-05-05 05:06:00,
2013-05-05 00:11:00,49.8,41.6,29.99,North,0,0.0,0.0,73,0.00,,,0.00,WUHU216WMR100,2013-05-05 05:11:00,
2013-05-05 00:16:00,49.5,41.3,30.02,North,0,0.0,0.0,73,0.00,,,0.00,WUHU216WMR100,2013-05-05 05:16:00,
2013-05-05 00:21:00,48.9,41.1,30.02,North,0,0.0,0.0,74,0.00,,,0.00,WUHU216WMR100,2013-05-05 05:21:00,
2013-05-05 00:26:00,48.7,40.9,30.02,North,0,0.0,0.0,74,0.00,,,0.00,WUHU216WMR100,2013-05-05 05:26:00,
2013-05-05 00:31:00,48.2,40.4,30.02,North,0,0.0,0.0,74,0.00,,,0.00,WUHU216WMR100,2013-05-05 05:31:00,
2013-05-05 00:36:00,47.8,40.7,30.02,North,0,0.0,0.0,76,0.00,,,0.00,WUHU216WMR100,2013-05-05 05:36:00,
2013-05-05 00:41:00,47.8,40.7,30.02,NNW,337,1.5,1.5,76,0.00,,,0.00,WUHU216WMR100,2013-05-05 05:41:00,
2013-05-05 00:46:00,47.8,41.0,29.99,NW,315,0.0,1.5,77,0.00,,,0.00,WUHU216WMR100,2013-05-05 05:46:00,
2013-05-05 00:51:00,47.7,40.9,29.99,NNW,337,1.8,1.8,77,0.00,,,0.00,WUHU216WMR100,2013-05-05 05:51:00,
2013-05-05 00:56:00,47.7,41.2,29.99,East,90,3.6,3.6,78,0.00,,,0.00,WUHU216WMR100,2013-05-05 05:56:00,
2013-05-05 01:01:00,47.7,41.9,29.99,ESE,112,0.0,3.6,80,0.00,,,0.00,WUHU216WMR100,2013-05-05 06:01:00,
2013-05-05 01:06:00,47.5,41.3,29.99,East,90,0.0,3.6,79,0.00,,,0.00,WUHU216WMR100,2013-05-05 06:06:00,
2013-05-05 01:11:00,47.3,41.2,29.99,East,90,0.0,0.0,79,0.00,,,0.00,WUHU216WMR100,2013-05-05 06:11:00,
2013-05-05 01:16:00,47.1,41.0,29.99,ENE,67,0.0,0.0,79,0.00,,,0.00,WUHU216WMR100,2013-05-05 06:16:00,
2013-05-05 01:21:00,46.8,40.3,29.99,ENE,67,0.0,0.0,78,0.00,,,0.00,WUHU216WMR100,2013-05-05 06:21:00,
2013-05-05 01:26:00,46.6,40.2,29.99,ENE,67,0.0,0.0,78,0.00,,,0.00,WUHU216WMR100,2013-05-05 06:26:00,
2013-05-05 01:31:00,46.6,40.5,29.99,ENE,67,0.0,0.0,79,0.00,,,0.00,WUHU216WMR100,2013-05-05 06:31:00,
2013-05-05 01:36:00,46.2,40.4,29.99,ENE,67,0.0,0.0,80,0.00,,,0.00,WUHU216WMR100,2013-05-05 06:36:00,
2013-05-05 01:41:00,46.0,40.2,29.99,ENE,67,0.0,0.0,80,0.00,,,0.00,WUHU216WMR100,2013-05-05 06:41:00,
2013-05-05 01:46:00,45.9,40.1,29.96,ENE,67,0.0,0.0,80,0.00,,,0.00,WUHU216WMR100,2013-05-05 06:46:00,
2013-05-05 01:51:00,45.9,40.1,29.96,ENE,67,0.0,0.0,80,0.00,,,0.00,WUHU216WMR100,2013-05-05 06:51:00,
2013-05-05 01:56:00,45.7,40.2,29.96,ENE,67,0.0,0.0,81,0.00,,,0.00,WUHU216WMR100,2013-05-05 06:56:00,
2013-05-05 02:01:00,45.7,39.9,29.96,ENE,67,0.0,0.0,80,0.00,,,0.00,WUHU216WMR100,2013-05-05 07:01:00,
2013-05-05 02:06:00,45.5,40.0,29.96,ENE,67,0.0,0.0,81,0.00,,,0.00,WUHU216WMR100,2013-05-05 07:06:00,
2013-05-05 02:11:00,45.5,40.3,29.96,NNW,337,2.1,2.1,82,0.00,,,0.00,WUHU216WMR100,2013-05-05 07:11:00,
2013-05-05 02:16:00,45.5,40.6,29.96,NNW,337,2.1,2.1,83,0.00,,,0.00,WUHU216WMR100,2013-05-05 07:16:00,
2013-05-05 02:21:00,45.9,41.3,29.96,ENE,67,0.0,2.1,84,0.00,,,0.00,WUHU216WMR100,2013-05-05 07:21:00,
2013-05-05 02:26:00,46.0,41.4,29.96,ENE,67,0.0,1.5,84,0.00,,,0.00,WUHU216WMR100,2013-05-05 07:26:00,
2013-05-05 02:31:00,46.2,41.9,29.96,NNW,342,1.9,2.1,85,0.00,,,0.00,WUHU216WMR100,2013-05-05 07:31:00,
2013-05-05 02:36:00,46.4,42.1,29.96,NW,315,4.5,4.5,85,0.00,,,0.00,WUHU216WMR100,2013-05-05 07:36:00,
2013-05-05 02:41:00,46.4,42.4,29.96,ENE,67,4.1,4.5,86,0.00,,,0.00,WUHU216WMR100,2013-05-05 07:41:00,
2013-05-05 02:46:00,46.4,42.1,29.96,ENE,67,1.5,4.1,85,0.00,,,0.00,WUHU216WMR100,2013-05-05 07:46:00,
2013-05-05 02:51:00,46.4,42.1,29.96,ENE,67,0.0,4.1,85,0.00,,,0.00,WUHU216WMR100,2013-05-05 07:51:00,
2013-05-05 02:56:00,46.2,41.9,29.96,ENE,67,0.0,3.3,85,0.00,,,0.00,WUHU216WMR100,2013-05-05 07:56:00,
2013-05-05 03:01:00,46.0,41.4,29.96,ENE,67,0.0,0.0,84,0.00,,,0.00,WUHU216WMR100,2013-05-05 08:01:00,
2013-05-05 03:06:00,45.9,41.3,29.96,NNW,337,0.0,2.6,84,0.00,,,0.00,WUHU216WMR100,2013-05-05 08:06:00,
2013-05-05 03:11:00,45.5,40.9,29.96,NNW,337,2.1,2.6,84,0.00,,,0.00,WUHU216WMR100,2013-05-05 08:11:00,
2013-05-05 03:16:00,45.3,40.7,29.96,NNW,337,0.0,2.1,84,0.00,,,0.00,WUHU216WMR100,2013-05-05 08:16:00,
2013-05-05 03:21:00,45.1,40.5,29.96,NNW,337,0.0,2.1,84,0.00,,,0.00,WUHU216WMR100,2013-05-05 08:21:00,
2013-05-05 03:26:00,44.8,40.6,29.96,NNW,337,0.0,0.0,85,0.00,,,0.00,WUHU216WMR100,2013-05-05 08:26:00,
2013-05-05 03:31:00,44.8,40.6,29.96,NNW,337,1.8,1.8,85,0.00,,,0.00,WUHU216WMR100,2013-05-05 08:31:00,
2013-05-05 03:36:00,44.6,40.4,29.96,NNW,337,2.1,2.1,85,0.00,,,0.00,WUHU216WMR100,2013-05-05 08:36:00,
2013-05-05 03:41:00,44.8,40.8,29.96,ENE,67,2.6,2.6,86,0.00,,,0.00,WUHU216WMR100,2013-05-05 08:41:00,
2013-05-05 03:46:00,44.6,40.7,29.96,ENE,67,0.0,2.6,86,0.00,,,0.00,WUHU216WMR100,2013-05-05 08:46:00,
2013-05-05 03:51:00,44.6,40.4,29.96,ENE,67,0.0,0.0,85,0.00,,,0.00,WUHU216WMR100,2013-05-05 08:51:00,
2013-05-05 03:56:00,44.2,40.3,29.96,North,0,0.0,0.0,86,0.00,,,0.00,WUHU216WMR100,2013-05-05 08:56:00,
2013-05-05 04:01:00,44.2,40.3,29.96,North,0,0.0,0.0,86,0.00,,,0.00,WUHU216WMR100,2013-05-05 09:01:00,
2013-05-05 04:06:00,44.2,40.3,29.96,North,0,0.0,0.0,86,0.00,,,0.00,WUHU216WMR100,2013-05-05 09:06:00,
2013-05-05 04:11:00,44.1,40.5,29.96,NE,45,0.0,0.0,87,0.00,,,0.00,WUHU216WMR100,2013-05-05 09:11:00,
2013-05-05 04:16:00,43.9,40.3,29.96,East,90,0.0,0.0,87,0.00,,,0.00,WUHU216WMR100,2013-05-05 09:16:00,
2013-05-05 04:21:00,43.9,40.3,29.96,East,90,0.0,0.0,87,0.00,,,0.00,WUHU216WMR100,2013-05-05 09:21:00,
2013-05-05 04:26:00,43.7,40.1,29.96,East,90,0.0,0.0,87,0.00,,,0.00,WUHU216WMR100,2013-05-05 09:26:00,
2013-05-05 04:31:00,43.5,39.9,29.96,East,90,0.0,0.0,87,0.00,,,0.00,WUHU216WMR100,2013-05-05 09:31:00,
2013-05-05 04:36:00,43.5,40.1,29.96,East,90,0.0,0.0,88,0.00,,,0.00,WUHU216WMR100,2013-05-05 09:36:00,
2013-05-05 04:41:00,43.3,40.0,29.96,East,90,0.0,0.0,88,0.00,,,0.00,WUHU216WMR100,2013-05-05 09:41:00,
2013-05-05 04:46:00,43.2,39.6,29.96,East,90,0.0,0.0,87,0.00,,,0.00,WUHU216WMR100,2013-05-05 09:46:00,
2013-05-05 04:51:00,43.0,39.4,29.96,East,90,0.0,0.0,87,0.00,,,0.00,WUHU216WMR100,2013-05-05 09:51:00,
2013-05-05 04:56:00,42.8,39.2,29.96,East,90,0.0,0.0,87,0.00,,,0.00,WUHU216WMR100,2013-05-05 09:56:00,
2013-05-05 05:01:00,42.6,39.3,29.96,East,90,0.0,0.0,88,0.00,,,0.00,WUHU216WMR100,2013-05-05 10:01:00,
2013-05-05 05:06:00,42.6,39.5,29.96,East,90,0.0,0.0,89,0.00,,,0.00,WUHU216WMR100,2013-05-05 10:06:00,
2013-05-05 05:11:00,42.4,39.3,29.96,East,90,0.0,0.0,89,0.00,,,0.00,WUHU216WMR100,2013-05-05 10:11:00,
2013-05-05 05:16:00,42.3,39.3,29.96,East,90,0.0,0.0,89,0.00,,,0.00,WUHU216WMR100,2013-05-05 10:16:00,
2013-05-05 05:21:00,42.1,39.1,29.96,East,90,0.0,0.0,89,0.00,,,0.00,WUHU216WMR100,2013-05-05 10:21:00,
2013-05-05 05:26:00,42.1,39.3,29.96,East,90,0.0,0.0,90,0.00,,,0.00,WUHU216WMR100,2013-05-05 10:26:00,
2013-05-05 05:31:00,42.1,39.1,29.96,East,90,0.0,0.0,89,0.00,,,0.00,WUHU216WMR100,2013-05-05 10:31:00,
2013-05-05 05:36:00,41.9,39.1,29.96,East,90,0.0,0.0,90,0.00,,,0.00,WUHU216WMR100,2013-05-05 10:36:00,
2013-05-05 05:41:00,41.7,38.9,29.96,East,90,0.0,0.0,90,0.00,,,0.00,WUHU216WMR100,2013-05-05 10:41:00,
2013-05-05 05:46:00,41.9,39.1,29.96,East,90,0.0,0.0,90,0.00,,,0.00,WUHU216WMR100,2013-05-05 10:46:00,
2013-05-05 05:51:00,42.1,39.6,29.96,East,90,0.0,0.0,91,0.00,,,0.00,WUHU216WMR100,2013-05-05 10:51:00,
2013-05-05 05:56:00,42.1,39.3,29.96,East,90,0.0,0.0,90,0.00,,,0.00,WUHU216WMR100,2013-05-05 10:56:00,
2013-05-05 06:01:00,42.3,39.8,29.96,East,90,0.0,0.0,91,0.00,,,0.00,WUHU216WMR100,2013-05-05 11:01:00,
2013-05-05 06:06:00,42.4,40.2,29.96,East,90,0.0,0.0,92,0.00,,,0.00,WUHU216WMR100,2013-05-05 11:06:00,
2013-05-05 06:11:00,42.8,40.6,29.96,East,90,0.0,0.0,92,0.00,,,0.00,WUHU216WMR100,2013-05-05 11:11:00,
2013-05-05 06:16:00,43.3,41.4,29.96,East,90,0.0,0.0,93,0.00,,,0.00,WUHU216WMR100,2013-05-05 11:16:00,
2013-05-05 06:21:00,43.9,42.0,29.96,East,90,0.0,0.0,93,0.00,,,0.00,WUHU216WMR100,2013-05-05 11:21:00,
2013-05-05 06:26:00,44.6,42.9,29.96,East,90,0.0,0.0,94,0.00,,,0.00,WUHU216WMR100,2013-05-05 11:26:00,
2013-05-05 06:31:00,45.5,43.8,29.96,East,90,0.0,0.0,94,0.00,,,0.00,WUHU216WMR100,2013-05-05 11:31:00,
2013-05-05 06:36:00,46.0,44.6,29.96,ESE,112,0.0,1.8,95,0.00,,,0.00,WUHU216WMR100,2013-05-05 11:36:00,
2013-05-05 06:41:00,46.8,45.7,29.96,North,0,0.0,1.8,96,0.00,,,0.00,WUHU216WMR100,2013-05-05 11:41:00,
2013-05-05 06:46:00,47.8,47.0,29.96,North,0,0.0,0.0,97,0.00,,,0.00,WUHU216WMR100,2013-05-05 11:46:00,
2013-05-05 06:51:00,48.7,47.9,29.96,North,0,0.0,0.0,97,0.00,,,0.00,WUHU216WMR100,2013-05-05 11:51:00,
2013-05-05 06:56:00,49.5,48.7,29.96,North,0,0.0,0.0,97,0.00,,,0.00,WUHU216WMR100,2013-05-05 11:56:00,
2013-05-05 07:01:00,50.4,49.3,29.99,North,0,0.0,0.0,96,0.00,,,0.00,WUHU216WMR100,2013-05-05 12:01:00,
2013-05-05 07:06:00,51.1,50.0,29.99,North,0,1.8,1.8,96,0.00,,,0.00,WUHU216WMR100,2013-05-05 12:06:00,
2013-05-05 07:11:00,52.2,50.2,29.99,North,0,0.0,1.8,93,0.00,,,0.00,WUHU216WMR100,2013-05-05 12:11:00,
2013-05-05 07:16:00,53.1,49.6,29.99,North,0,0.0,1.8,88,0.00,,,0.00,WUHU216WMR100,2013-05-05 12:16:00,
2013-05-05 07:21:00,53.6,48.9,29.99,North,0,0.0,0.0,84,0.00,,,0.00,WUHU216WMR100,2013-05-05 12:21:00,
2013-05-05 07:26:00,54.3,48.6,29.99,North,0,0.0,2.1,81,0.00,,,0.00,WUHU216WMR100,2013-05-05 12:26:00,
2013-05-05 07:31:00,55.6,49.2,29.99,North,0,0.0,2.1,79,0.00,,,0.00,WUHU216WMR100,2013-05-05 12:31:00,
2013-05-05 07:36:00,56.1,49.4,29.99,North,0,1.5,1.5,78,0.00,,,0.00,WUHU216WMR100,2013-05-05 12:36:00,
2013-05-05 07:41:00,57.2,49.1,29.99,NE,45,0.0,1.5,74,0.00,,,0.00,WUHU216WMR100,2013-05-05 12:41:00,
2013-05-05 07:46:00,58.1,49.2,29.99,ENE,67,2.6,2.6,72,0.00,,,0.00,WUHU216WMR100,2013-05-05 12:46:00,
2013-05-05 07:51:00,58.5,47.7,29.99,ESE,110,4.0,4.5,67,0.00,,,0.00,WUHU216WMR100,2013-05-05 12:51:00,
2013-05-05 07:56:00,59.0,47.0,29.99,ESE,112,2.6,4.5,64,0.00,,,0.00,WUHU216WMR100,2013-05-05 12:56:00,
2013-05-05 08:01:00,59.2,47.2,29.99,ENE,67,3.3,3.3,64,0.00,,,0.00,WUHU216WMR100,2013-05-05 13:01:00,
2013-05-05 08:06:00,58.8,45.5,29.99,NE,45,0.0,3.3,61,0.00,,,0.00,WUHU216WMR100,2013-05-05 13:06:00,
2013-05-05 08:11:00,59.4,46.1,29.99,NE,45,1.5,3.3,61,0.00,,,0.00,WUHU216WMR100,2013-05-05 13:11:00,
2013-05-05 08:16:00,60.4,45.7,29.99,North,0,3.6,3.6,58,0.00,,,0.00,WUHU216WMR100,2013-05-05 13:16:00,
2013-05-05 08:21:00,60.8,45.6,29.99,East,91,3.3,4.1,57,0.00,,,0.00,WUHU216WMR100,2013-05-05 13:21:00,
2013-05-05 08:26:00,62.1,46.3,29.99,East,83,3.8,4.1,56,0.00,,,0.00,WUHU216WMR100,2013-05-05 13:26:00,
2013-05-05 08:31:00,63.9,47.0,29.99,ESE,110,3.6,5.6,54,0.00,,,0.00,WUHU216WMR100,2013-05-05 13:31:00,
2013-05-05 08:36:00,64.4,45.9,29.99,SSE,157,5.1,6.6,51,0.00,,,0.00,WUHU216WMR100,2013-05-05 13:36:00,
2013-05-05 08:41:00,65.5,45.8,29.99,ESE,112,4.1,6.6,49,0.00,,,0.00,WUHU216WMR100,2013-05-05 13:41:00,
2013-05-05 08:46:00,66.6,46.3,29.99,ESE,109,3.8,6.6,48,0.00,,,0.00,WUHU216WMR100,2013-05-05 13:46:00,
2013-05-05 08:51:00,67.6,45.5,29.99,East,99,4.5,6.3,45,0.00,,,0.00,WUHU216WMR100,2013-05-05 13:51:00,
2013-05-05 08:56:00,68.5,43.8,29.99,SE,131,5.8,7.1,41,0.00,,,0.00,WUHU216WMR100,2013-05-05 13:56:00,
2013-05-05 09:01:00,69.4,41.8,29.99,ENE,59,4.7,7.1,37,0.00,,,0.00,WUHU216WMR100,2013-05-05 14:01:00,
2013-05-05 09:06:00,70.0,43.8,29.99,NNW,337,3.3,6.6,39,0.00,,,0.00,WUHU216WMR100,2013-05-05 14:06:00,
2013-05-05 09:11:00,70.7,43.7,29.99,SE,129,4.2,5.9,38,0.00,,,0.00,WUHU216WMR100,2013-05-05 14:11:00,
2013-05-05 09:16:00,71.4,42.1,29.99,East,100,5.4,6.3,35,0.00,,,0.00,WUHU216WMR100,2013-05-05 14:16:00,
2013-05-05 09:21:00,72.0,41.9,29.99,SSW,202,10.7,10.7,34,0.00,,,0.00,WUHU216WMR100,2013-05-05 14:21:00,
2013-05-05 09:26:00,72.0,41.9,29.99,SSE,147,6.8,10.7,34,0.00,,,0.00,WUHU216WMR100,2013-05-05 14:26:00,
2013-05-05 09:31:00,72.3,42.2,29.99,East,101,3.9,10.7,34,0.00,,,0.00,WUHU216WMR100,2013-05-05 14:31:00,
2013-05-05 09:36:00,72.0,41.1,29.99,SE,128,5.7,6.3,33,0.00,,,0.00,WUHU216WMR100,2013-05-05 14:36:00,
2013-05-05 09:41:00,72.1,41.2,29.99,ESE,118,6.5,9.2,33,0.00,,,0.00,WUHU216WMR100,2013-05-05 14:41:00,
2013-05-05 09:46:00,72.7,41.8,29.99,ESE,112,8.9,9.9,33,0.00,,,0.00,WUHU216WMR100,2013-05-05 14:46:00,
2013-05-05 09:51:00,72.9,41.9,29.99,SSE,157,14.0,14.0,33,0.00,,,0.00,WUHU216WMR100,2013-05-05 14:51:00,
2013-05-05 09:56:00,72.9,41.9,29.99,ESE,112,6.3,14.0,33,0.00,,,0.00,WUHU216WMR100,2013-05-05 14:56:00,
2013-05-05 10:01:00,73.6,41.7,29.99,SSE,157,10.7,14.0,32,0.00,,,0.00,WUHU216WMR100,2013-05-05 15:01:00,
2013-05-05 10:06:00,74.1,42.2,29.99,East,90,7.8,12.9,32,0.00,,,0.00,WUHU216WMR100,2013-05-05 15:06:00,
2013-05-05 10:11:00,75.0,43.0,29.99,ESE,112,7.1,10.7,32,0.00,,,0.00,WUHU216WMR100,2013-05-05 15:11:00,
2013-05-05 10:16:00,75.4,42.5,29.99,East,100,6.4,9.9,31,0.00,,,0.00,WUHU216WMR100,2013-05-05 15:16:00,
2013-05-05 10:21:00,75.9,43.8,29.99,SSW,202,8.9,8.9,32,0.00,,,0.00,WUHU216WMR100,2013-05-05 15:21:00,
2013-05-05 10:26:00,76.5,43.4,29.99,North,0,5.1,8.9,31,0.00,,,0.00,WUHU216WMR100,2013-05-05 15:26:00,
2013-05-05 10:31:00,76.3,40.6,29.99,SSE,157,7.8,8.9,28,0.00,,,0.00,WUHU216WMR100,2013-05-05 15:31:00,
2013-05-05 10:36:00,76.3,39.7,29.99,SE,129,9.4,13.4,27,0.00,,,0.00,WUHU216WMR100,2013-05-05 15:36:00,
2013-05-05 10:42:00,76.6,42.7,29.99,ESE,112,6.9,13.4,30,0.00,,,0.00,WUHU216WMR100,2013-05-05 15:42:00,
2013-05-05 10:47:00,76.8,42.0,29.99,SE,135,6.6,9.6,29,0.00,,,0.00,WUHU216WMR100,2013-05-05 15:47:00,
2013-05-05 10:52:00,77.4,42.5,29.99,ENE,67,9.2,9.6,29,0.00,,,0.00,WUHU216WMR100,2013-05-05 15:52:00,
2013-05-05 10:57:00,78.3,43.3,29.99,NE,45,4.5,9.2,29,0.00,,,0.00,WUHU216WMR100,2013-05-05 15:57:00,
2013-05-05 11:02:00,77.2,42.3,29.99,NW,315,4.8,9.2,29,0.00,,,0.00,WUHU216WMR100,2013-05-05 16:02:00,
2013-05-05 11:07:00,76.5,42.6,29.99,NNE,22,7.1,7.1,30,0.00,,,0.00,WUHU216WMR100,2013-05-05 16:07:00,
2013-05-05 11:12:00,75.2,43.1,29.96,NNE,16,5.5,7.1,32,0.00,,,0.00,WUHU216WMR100,2013-05-05 16:12:00,
2013-05-05 11:17:00,75.0,43.8,29.96,North,0,5.6,10.4,33,0.00,,,0.00,WUHU216WMR100,2013-05-05 16:17:00,
2013-05-05 11:22:00,74.8,43.6,29.96,NNW,337,5.6,10.4,33,0.00,,,0.00,WUHU216WMR100,2013-05-05 16:22:00,
2013-05-05 11:27:00,74.8,43.6,29.96,NW,322,6.5,10.7,33,0.00,,,0.00,WUHU216WMR100,2013-05-05 16:27:00,
2013-05-05 11:32:00,74.8,42.8,29.96,NW,324,9.7,11.1,32,0.00,,,0.00,WUHU216WMR100,2013-05-05 16:32:00,
2013-05-05 11:37:00,74.1,42.2,29.96,NNW,348,6.2,11.1,32,0.00,,,0.00,WUHU216WMR100,2013-05-05 16:37:00,
2013-05-05 11:42:00,74.3,43.2,29.96,North,0,11.1,11.1,33,0.00,,,0.00,WUHU216WMR100,2013-05-05 16:42:00,
2013-05-05 11:47:00,73.8,41.1,29.96,NNW,337,12.9,12.9,31,0.00,,,0.00,WUHU216WMR100,2013-05-05 16:47:00,
2013-05-05 11:52:00,74.5,43.3,29.96,NW,323,2.7,12.9,33,0.00,,,0.00,WUHU216WMR100,2013-05-05 16:52:00,
2013-05-05 11:57:00,74.8,42.8,29.96,NNW,337,10.7,10.7,32,0.00,,,0.00,WUHU216WMR100,2013-05-05 16:57:00,
2013-05-05 12:02:00,74.3,42.4,29.96,NE,37,7.4,15.8,32,0.00,,,0.00,WUHU216WMR100,2013-05-05 17:02:00,
2013-05-05 12:07:00,73.8,41.9,29.96,NNW,337,9.2,15.8,32,0.00,,,0.00,WUHU216WMR100,2013-05-05 17:07:00,
2013-05-05 12:12:00,73.0,42.0,29.96,NNW,337,7.3,10.7,33,0.00,,,0.00,WUHU216WMR100,2013-05-05 17:12:00,
2013-05-05 12:17:00,72.1,41.2,29.96,NNW,337,8.1,9.9,33,0.00,,,0.00,WUHU216WMR100,2013-05-05 17:17:00,
2013-05-05 12:22:00,72.7,41.8,29.96,NNW,329,7.9,9.9,33,0.00,,,0.00,WUHU216WMR100,2013-05-05 17:22:00,
2013-05-05 12:27:00,72.5,41.6,29.96,North,0,7.7,13.4,33,0.00,,,0.00,WUHU216WMR100,2013-05-05 17:27:00,
2013-05-05 12:32:00,73.2,42.2,29.96,WNW,292,8.9,14.4,33,0.00,,,0.00,WUHU216WMR100,2013-05-05 17:32:00,
2013-05-05 12:37:00,72.1,41.2,29.96,NNW,337,9.6,16.2,33,0.00,,,0.00,WUHU216WMR100,2013-05-05 17:37:00,
2013-05-05 12:42:00,72.5,42.4,29.96,NNW,337,9.6,16.2,34,0.00,,,0.00,WUHU216WMR100,2013-05-05 17:42:00,
2013-05-05 12:47:00,70.7,40.8,29.96,NE,45,9.8,12.9,34,0.00,,,0.00,WUHU216WMR100,2013-05-05 17:47:00,
2013-05-05 12:52:00,70.9,40.9,29.96,North,0,12.2,12.9,34,0.00,,,0.00,WUHU216WMR100,2013-05-05 17:52:00,
2013-05-05 12:57:00,71.1,41.9,29.96,NNW,327,8.5,12.2,35,0.00,,,0.00,WUHU216WMR100,2013-05-05 17:57:00,
2013-05-05 13:02:00,72.0,41.9,29.96,NNW,337,11.4,11.9,34,0.00,,,0.00,WUHU216WMR100,2013-05-05 18:02:00,
2013-05-05 13:07:00,72.3,42.2,29.96,NNW,337,8.9,11.9,34,0.00,,,0.00,WUHU216WMR100,2013-05-05 18:07:00,
2013-05-05 13:12:00,72.5,41.6,29.93,NNE,22,6.3,11.9,33,0.00,,,0.00,WUHU216WMR100,2013-05-05 18:12:00,
2013-05-05 13:17:00,72.7,42.5,29.93,NNW,348,6.8,10.7,34,0.00,,,0.00,WUHU216WMR100,2013-05-05 18:17:00,
2013-05-05 13:22:00,72.3,41.4,29.93,NNW,337,10.4,10.7,33,0.00,,,0.00,WUHU216WMR100,2013-05-05 18:22:00,
2013-05-05 13:27:00,71.1,41.1,29.96,WNW,292,7.1,10.4,34,0.00,,,0.00,WUHU216WMR100,2013-05-05 18:27:00,
2013-05-05 13:32:00,70.3,41.2,29.96,NW,315,6.3,9.2,35,0.00,,,0.00,WUHU216WMR100,2013-05-05 18:32:00,
2013-05-05 13:37:00,70.2,41.1,29.96,NNE,24,7.1,9.6,35,0.00,,,0.00,WUHU216WMR100,2013-05-05 18:37:00,
2013-05-05 13:42:00,69.6,41.3,29.96,NE,39,7.0,14.4,36,0.00,,,0.00,WUHU216WMR100,2013-05-05 18:42:00,
2013-05-05 13:47:00,70.3,41.2,29.96,NW,324,7.6,14.4,35,0.00,,,0.00,WUHU216WMR100,2013-05-05 18:47:00,
2013-05-05 13:52:00,70.3,41.2,29.96,North,354,6.3,10.4,35,0.00,,,0.00,WUHU216WMR100,2013-05-05 18:52:00,
2013-05-05 13:57:00,69.4,40.4,29.96,NW,315,9.2,10.4,35,0.00,,,0.00,WUHU216WMR100,2013-05-05 18:57:00,
2013-05-05 14:02:00,69.6,41.3,29.96,NNW,332,4.5,10.4,36,0.00,,,0.00,WUHU216WMR100,2013-05-05 19:02:00,
2013-05-05 14:07:00,70.7,41.5,29.96,NNE,25,8.2,10.4,35,0.00,,,0.00,WUHU216WMR100,2013-05-05 19:07:00,
2013-05-05 14:12:00,71.1,41.1,29.96,NE,48,8.9,10.4,34,0.00,,,0.00,WUHU216WMR100,2013-05-05 19:12:00,
2013-05-05 14:17:00,71.8,41.7,29.96,North,0,8.9,12.2,34,0.00,,,0.00,WUHU216WMR100,2013-05-05 19:17:00,
2013-05-05 14:22:00,72.5,42.4,29.96,NE,45,4.1,12.2,34,0.00,,,0.00,WUHU216WMR100,2013-05-05 19:22:00,
2013-05-05 14:27:00,71.4,41.4,29.96,ENE,64,9.2,9.9,34,0.00,,,0.00,WUHU216WMR100,2013-05-05 19:27:00,
2013-05-05 14:32:00,73.2,42.2,29.96,North,0,5.2,9.9,33,0.00,,,0.00,WUHU216WMR100,2013-05-05 19:32:00,
2013-05-05 14:37:00,75.2,43.1,29.96,NNE,22,6.7,10.4,32,0.00,,,0.00,WUHU216WMR100,2013-05-05 19:37:00,
2013-05-05 14:42:00,73.6,41.7,29.93,NW,315,14.4,14.4,32,0.00,,,0.00,WUHU216WMR100,2013-05-05 19:42:00,
2013-05-05 14:47:00,71.8,40.2,29.93,NNW,337,10.7,14.4,32,0.00,,,0.00,WUHU216WMR100,2013-05-05 19:47:00,
2013-05-05 14:52:00,71.2,40.4,29.93,North,354,9.9,14.4,33,0.00,,,0.00,WUHU216WMR100,2013-05-05 19:52:00,
2013-05-05 14:57:00,70.3,39.6,29.93,NNW,337,8.8,10.7,33,0.00,,,0.00,WUHU216WMR100,2013-05-05 19:57:00,
2013-05-05 15:02:00,70.0,40.2,29.93,North,354,9.1,12.2,34,0.00,,,0.00,WUHU216WMR100,2013-05-05 20:02:00,
2013-05-05 15:07:00,69.8,40.0,29.93,NW,315,12.9,12.9,34,0.00,,,0.00,WUHU216WMR100,2013-05-05 20:07:00,
2013-05-05 15:12:00,69.8,40.0,29.93,NNW,334,9.9,13.4,34,0.00,,,0.00,WUHU216WMR100,2013-05-05 20:12:00,
2013-05-05 15:17:00,70.3,41.2,29.93,NNE,19,6.9,13.4,35,0.00,,,0.00,WUHU216WMR100,2013-05-05 20:17:00,
2013-05-05 15:22:00,70.2,40.3,29.93,WNW,292,9.9,10.7,34,0.00,,,0.00,WUHU216WMR100,2013-05-05 20:22:00,
2013-05-05 15:27:00,70.0,40.2,29.93,ENE,57,6.2,14.4,34,0.00,,,0.00,WUHU216WMR100,2013-05-05 20:27:00,
2013-05-05 15:32:00,70.3,40.4,29.93,ENE,61,9.7,14.4,34,0.00,,,0.00,WUHU216WMR100,2013-05-05 20:32:00,
2013-05-05 15:37:00,70.5,41.3,29.93,NE,34,7.5,11.9,35,0.00,,,0.00,WUHU216WMR100,2013-05-05 20:37:00,
2013-05-05 15:42:00,70.0,40.2,29.93,NNW,337,7.1,9.2,34,0.00,,,0.00,WUHU216WMR100,2013-05-05 20:42:00,
2013-05-05 15:47:00,69.4,40.4,29.93,West,278,7.3,12.2,35,0.00,,,0.00,WUHU216WMR100,2013-05-05 20:47:00,
2013-05-05 15:52:00,69.4,40.4,29.93,NNW,341,8.4,12.2,35,0.00,,,0.00,WUHU216WMR100,2013-05-05 20:52:00,
2013-05-05 15:57:00,69.1,40.1,29.93,NW,315,9.2,9.9,35,0.00,,,0.00,WUHU216WMR100,2013-05-05 20:57:00,
2013-05-05 16:02:00,68.9,40.7,29.93,NNE,20,3.3,9.6,36,0.00,,,0.00,WUHU216WMR100,2013-05-05 21:02:00,
2013-05-05 16:07:00,68.7,39.8,29.93,North,356,5.3,9.6,35,0.00,,,0.00,WUHU216WMR100,2013-05-05 21:07:00,
2013-05-05 16:12:00,68.0,39.9,29.93,NW,321,7.6,9.6,36,0.00,,,0.00,WUHU216WMR100,2013-05-05 21:12:00,
2013-05-05 16:17:00,67.6,40.2,29.93,NNE,22,8.1,9.9,37,0.00,,,0.00,WUHU216WMR100,2013-05-05 21:17:00,
2013-05-05 16:22:00,65.7,39.2,29.93,NNW,337,6.5,9.9,38,0.00,,,0.00,WUHU216WMR100,2013-05-05 21:22:00,
2013-05-05 16:27:00,65.1,40.0,29.93,North,0,5.5,8.1,40,0.00,,,0.00,WUHU216WMR100,2013-05-05 21:27:00,
2013-05-05 16:32:00,64.4,39.4,29.93,NNW,337,3.3,6.6,40,0.00,,,0.00,WUHU216WMR100,2013-05-05 21:32:00,
2013-05-05 16:37:00,64.4,39.4,29.93,NNW,329,7.6,8.9,40,0.00,,,0.00,WUHU216WMR100,2013-05-05 21:37:00,
2013-05-05 16:42:00,63.5,40.5,29.93,NNW,337,8.1,8.9,43,0.00,,,0.00,WUHU216WMR100,2013-05-05 21:42:00,
2013-05-05 16:47:00,63.0,40.7,29.93,NNW,348,6.6,8.9,44,0.00,,,0.00,WUHU216WMR100,2013-05-05 21:47:00,
2013-05-05 16:52:00,62.4,40.7,29.93,North,0,8.0,10.7,45,0.00,,,0.00,WUHU216WMR100,2013-05-05 21:52:00,
2013-05-05 16:57:00,62.1,40.4,29.93,NNW,337,8.9,11.9,45,0.00,,,0.00,WUHU216WMR100,2013-05-05 21:57:00,
2013-05-05 17:02:00,61.7,40.7,29.93,North,0,9.9,11.9,46,0.00,,,0.00,WUHU216WMR100,2013-05-05 22:02:00,
2013-05-05 17:07:00,61.3,40.3,29.93,NNW,337,4.5,9.9,46,0.00,,,0.00,WUHU216WMR100,2013-05-05 22:07:00,
2013-05-05 17:12:00,60.8,40.4,29.93,NNW,337,5.6,9.9,47,0.00,,,0.00,WUHU216WMR100,2013-05-05 22:12:00,
2013-05-05 17:17:00,60.3,40.5,29.93,NNW,335,4.9,5.9,48,0.00,,,0.00,WUHU216WMR100,2013-05-05 22:17:00,
2013-05-05 17:22:00,60.1,40.3,29.93,NNW,337,6.6,8.9,48,0.00,,,0.00,WUHU216WMR100,2013-05-05 22:22:00,
2013-05-05 17:27:00,59.9,40.7,29.96,SW,225,2.6,8.9,49,0.00,,,0.00,WUHU216WMR100,2013-05-05 22:27:00,
2013-05-05 17:32:00,59.9,40.7,29.96,NNW,337,5.9,7.8,49,0.00,,,0.00,WUHU216WMR100,2013-05-05 22:32:00,
2013-05-05 17:37:00,59.4,40.8,29.96,NNW,332,2.4,7.4,50,0.00,,,0.00,WUHU216WMR100,2013-05-05 22:37:00,
2013-05-05 17:42:00,59.4,41.3,29.96,NNW,341,5.0,7.4,51,0.00,,,0.00,WUHU216WMR100,2013-05-05 22:42:00,
2013-05-05 17:47:00,59.4,41.3,29.96,NNW,337,8.9,8.9,51,0.00,,,0.00,WUHU216WMR100,2013-05-05 22:47:00,
2013-05-05 17:52:00,59.2,41.1,29.96,NE,45,5.1,9.2,51,0.00,,,0.00,WUHU216WMR100,2013-05-05 22:52:00,
2013-05-05 17:57:00,58.8,41.2,29.96,North,357,6.0,9.2,52,0.00,,,0.00,WUHU216WMR100,2013-05-05 22:57:00,
2013-05-05 18:02:00,58.5,41.5,29.96,North,354,5.6,6.6,53,0.00,,,0.00,WUHU216WMR100,2013-05-05 23:02:00,
2013-05-05 18:07:00,57.7,40.7,29.96,NNW,337,3.4,8.9,53,0.00,,,0.00,WUHU216WMR100,2013-05-05 23:07:00,
2013-05-05 18:12:00,57.2,40.8,29.96,NNW,339,3.3,8.9,54,0.00,,,0.00,WUHU216WMR100,2013-05-05 23:12:00,
2013-05-05 18:17:00,57.2,41.2,29.96,North,0,4.8,6.3,55,0.00,,,0.00,WUHU216WMR100,2013-05-05 23:17:00,
2013-05-05 18:22:00,56.8,41.3,29.96,NNW,337,5.5,6.3,56,0.00,,,0.00,WUHU216WMR100,2013-05-05 23:22:00,
2013-05-05 18:27:00,56.5,41.1,29.96,North,8,4.6,6.3,56,0.00,,,0.00,WUHU216WMR100,2013-05-05 23:27:00,
2013-05-05 18:32:00,56.3,41.3,29.96,NNW,337,4.5,6.3,57,0.00,,,0.00,WUHU216WMR100,2013-05-05 23:32:00,
2013-05-05 18:37:00,56.1,41.2,29.96,NNW,337,5.6,5.9,57,0.00,,,0.00,WUHU216WMR100,2013-05-05 23:37:00,
2013-05-05 18:42:00,55.9,41.0,29.96,NNW,338,4.5,5.9,57,0.00,,,0.00,WUHU216WMR100,2013-05-05 23:42:00,
2013-05-05 18:47:00,55.8,40.9,29.96,WNW,292,3.3,6.3,57,0.00,,,0.00,WUHU216WMR100,2013-05-05 23:47:00,
2013-05-05 18:52:00,55.6,40.7,29.96,NNW,333,2.8,6.3,57,0.00,,,0.00,WUHU216WMR100,2013-05-05 23:52:00,
2013-05-05 18:57:00,55.4,40.5,29.96,NNW,337,4.5,5.1,57,0.00,,,0.00,WUHU216WMR100,2013-05-05 23:57:00,
2013-05-05 19:02:00,54.9,40.5,29.96,NW,321,5.0,5.1,58,0.00,,,0.00,WUHU216WMR100,2013-05-06 00:02:00,
2013-05-05 19:07:00,54.7,40.3,29.96,NNW,337,5.6,5.6,58,0.00,,,0.00,WUHU216WMR100,2013-05-06 00:07:00,
2013-05-05 19:12:00,54.5,40.1,29.96,NW,315,2.1,5.9,58,0.00,,,0.00,WUHU216WMR100,2013-05-06 00:12:00,
2013-05-05 19:17:00,54.3,40.4,29.96,NNE,22,5.0,5.9,59,0.00,,,0.00,WUHU216WMR100,2013-05-06 00:17:00,
2013-05-05 19:22:00,54.1,40.2,29.96,NW,315,5.6,5.9,59,0.00,,,0.00,WUHU216WMR100,2013-05-06 00:22:00,
2013-05-05 19:27:00,54.0,40.1,29.96,WNW,292,4.1,5.6,59,0.00,,,0.00,WUHU216WMR100,2013-05-06 00:27:00,
2013-05-05 19:32:00,53.8,39.9,29.96,North,0,1.8,5.6,59,0.00,,,0.00,WUHU216WMR100,2013-05-06 00:32:00,
2013-05-05 19:37:00,53.4,40.4,29.96,North,349,4.1,5.6,61,0.00,,,0.00,WUHU216WMR100,2013-05-06 00:37:00,
2013-05-05 19:42:00,53.2,40.2,29.96,NNW,347,4.4,7.1,61,0.00,,,0.00,WUHU216WMR100,2013-05-06 00:42:00,
2013-05-05 19:47:00,52.9,39.9,29.96,NNW,337,1.7,7.1,61,0.00,,,0.00,WUHU216WMR100,2013-05-06 00:47:00,
2013-05-05 19:52:00,52.5,39.5,29.96,NNW,337,2.1,4.1,61,0.00,,,0.00,WUHU216WMR100,2013-05-06 00:52:00,
2013-05-05 19:57:00,52.3,39.8,29.99,NNW,337,2.1,4.1,62,0.00,,,0.00,WUHU216WMR100,2013-05-06 00:57:00,
2013-05-05 20:02:00,52.0,39.5,29.99,NNW,337,2.1,4.1,62,0.00,,,0.00,WUHU216WMR100,2013-05-06 01:02:00,
2013-05-05 20:07:00,51.8,39.3,29.99,NNW,337,0.0,3.3,62,0.00,,,0.00,WUHU216WMR100,2013-05-06 01:07:00,
2013-05-05 20:12:00,51.4,38.9,29.99,West,270,0.0,0.0,62,0.00,,,0.00,WUHU216WMR100,2013-05-06 01:12:00,
2013-05-05 20:17:00,51.3,39.6,29.99,NW,315,4.1,4.1,64,0.00,,,0.00,WUHU216WMR100,2013-05-06 01:17:00,
2013-05-05 20:22:00,50.9,38.9,29.99,NW,315,0.0,4.1,63,0.00,,,0.00,WUHU216WMR100,2013-05-06 01:22:00,
2013-05-05 20:27:00,50.7,39.1,29.99,NW,315,0.0,4.1,64,0.00,,,0.00,WUHU216WMR100,2013-05-06 01:27:00,
2013-05-05 20:32:00,50.4,38.8,29.99,NW,315,0.0,0.0,64,0.00,,,0.00,WUHU216WMR100,2013-05-06 01:32:00,
2013-05-05 20:37:00,50.2,39.0,29.99,NW,315,0.0,0.0,65,0.00,,,0.00,WUHU216WMR100,2013-05-06 01:37:00,
2013-05-05 20:42:00,50.0,38.8,29.99,NW,315,0.0,0.0,65,0.00,,,0.00,WUHU216WMR100,2013-05-06 01:42:00,
2013-05-05 20:48:00,50.0,40.0,29.99,NW,315,1.8,1.8,68,0.00,,,0.00,WUHU216WMR100,2013-05-06 01:48:00,
2013-05-05 20:53:00,50.2,40.9,29.99,NW,315,0.0,1.8,70,0.00,,,0.00,WUHU216WMR100,2013-05-06 01:53:00,
2013-05-05 20:58:00,50.2,41.3,29.99,NW,315,1.5,1.5,71,0.00,,,0.00,WUHU216WMR100,2013-05-06 01:58:00,
2013-05-05 21:03:00,50.2,40.9,29.99,NNW,337,2.6,2.6,70,0.00,,,0.00,WUHU216WMR100,2013-05-06 02:03:00,
2013-05-05 21:08:00,50.4,41.5,29.99,NNW,337,1.8,3.3,71,0.00,,,0.00,WUHU216WMR100,2013-05-06 02:08:00,
2013-05-05 21:13:00,50.5,41.2,29.99,SW,229,2.6,3.3,70,0.00,,,0.00,WUHU216WMR100,2013-05-06 02:13:00,
2013-05-05 21:18:00,50.7,41.4,29.99,WSW,247,1.5,3.6,70,0.00,,,0.00,WUHU216WMR100,2013-05-06 02:18:00,
2013-05-05 21:23:00,50.9,41.6,29.99,WSW,247,0.0,5.1,70,0.00,,,0.00,WUHU216WMR100,2013-05-06 02:23:00,
2013-05-05 21:28:00,50.9,41.6,29.99,SW,225,1.8,5.1,70,0.00,,,0.00,WUHU216WMR100,2013-05-06 02:28:00,
2013-05-05 21:33:00,50.7,41.0,29.99,SW,225,2.6,4.1,69,0.00,,,0.00,WUHU216WMR100,2013-05-06 02:33:00,
2013-05-05 21:38:00,50.7,41.4,29.99,West,270,2.1,2.6,70,0.00,,,0.00,WUHU216WMR100,2013-05-06 02:38:00,
2013-05-05 21:43:00,50.7,41.4,30.02,WSW,247,5.1,6.6,70,0.00,,,0.00,WUHU216WMR100,2013-05-06 02:43:00,
2013-05-05 21:48:00,50.9,41.6,30.02,WNW,292,3.4,6.6,70,0.00,,,0.00,WUHU216WMR100,2013-05-06 02:48:00,
2013-05-05 21:53:00,51.1,41.8,30.02,WNW,292,1.5,6.6,70,0.00,,,0.00,WUHU216WMR100,2013-05-06 02:53:00,
2013-05-05 21:58:00,51.1,41.8,30.02,WNW,292,0.0,4.5,70,0.00,,,0.00,WUHU216WMR100,2013-05-06 02:58:00,
2013-05-05 22:03:00,51.3,42.0,30.02,NW,315,0.0,4.5,70,0.00,,,0.00,WUHU216WMR100,2013-05-06 03:03:00,
2013-05-05 22:08:00,51.3,42.3,30.02,NW,315,2.1,4.5,71,0.00,,,0.00,WUHU216WMR100,2013-05-06 03:08:00,
2013-05-05 22:13:00,51.3,42.0,29.99,NNW,337,2.1,4.5,70,0.00,,,0.00,WUHU216WMR100,2013-05-06 03:13:00,
2013-05-05 22:18:00,51.3,42.0,29.99,NNW,337,2.6,3.3,70,0.00,,,0.00,WUHU216WMR100,2013-05-06 03:18:00,
2013-05-05 22:23:00,51.3,42.0,29.99,NNW,337,1.5,2.6,70,0.00,,,0.00,WUHU216WMR100,2013-05-06 03:23:00,
2013-05-05 22:28:00,51.3,42.0,29.99,NNW,337,2.1,2.6,70,0.00,,,0.00,WUHU216WMR100,2013-05-06 03:28:00,
2013-05-05 22:33:00,51.3,41.6,29.99,NNW,337,0.0,2.1,69,0.00,,,0.00,WUHU216WMR100,2013-05-06 03:33:00,
2013-05-05 22:38:00,51.3,41.6,29.99,NNW,337,0.0,0.0,69,0.00,,,0.00,WUHU216WMR100,2013-05-06 03:38:00,
2013-05-05 22:43:00,51.3,41.6,29.99,NNW,337,0.0,0.0,69,0.00,,,0.00,WUHU216WMR100,2013-05-06 03:43:00,
2013-05-05 22:48:00,51.3,41.6,29.99,NNW,337,0.0,0.0,69,0.00,,,0.00,WUHU216WMR100,2013-05-06 03:48:00,
2013-05-05 22:53:00,51.1,41.0,29.99,NNW,337,0.0,0.0,68,0.00,,,0.00,WUHU216WMR100,2013-05-06 03:53:00,
2013-05-05 22:58:00,51.1,41.4,29.99,NNW,337,0.0,0.0,69,0.00,,,0.00,WUHU216WMR100,2013-05-06 03:58:00,
2013-05-05 23:01:00,50.9,41.2,29.99,NNW,337,0.0,0.0,69,0.00,,,0.00,WUHU216WMR100,2013-05-06 04:01:00,
2013-05-05 23:06:00,51.1,41.4,29.99,NNW,337,0.0,0.0,69,0.00,,,0.00,WUHU216WMR100,2013-05-06 04:06:00,
2013-05-05 23:11:00,51.3,42.0,29.99,NNW,337,0.0,0.0,70,0.00,,,0.00,WUHU216WMR100,2013-05-06 04:11:00,
2013-05-05 23:16:00,51.3,41.6,29.99,NNW,337,0.0,0.0,69,0.00,,,0.00,WUHU216WMR100,2013-05-06 04:16:00,
2013-05-05 23:21:00,51.3,41.6,29.99,NNW,337,0.0,0.0,69,0.00,,,0.00,WUHU216WMR100,2013-05-06 04:21:00,
2013-05-05 23:26:00,51.1,41.4,29.99,NNW,337,0.0,0.0,69,0.00,,,0.00,WUHU216WMR100,2013-05-06 04:26:00,
2013-05-05 23:31:00,51.1,41.4,29.99,North,0,0.0,0.0,69,0.00,,,0.00,WUHU216WMR100,2013-05-06 04:31:00,
2013-05-05 23:36:00,51.1,41.8,29.99,NNW,337,0.0,0.0,70,0.00,,,0.00,WUHU216WMR100,2013-05-06 04:36:00,
2013-05-05 23:41:00,51.1,41.4,29.99,NNW,337,0.0,0.0,69,0.00,,,0.00,WUHU216WMR100,2013-05-06 04:41:00,
2013-05-05 23:46:00,51.1,41.8,29.99,NNW,337,1.8,1.8,70,0.00,,,0.00,WUHU216WMR100,2013-05-06 04:46:00,
2013-05-05 23:51:00,51.1,41.8,29.99,NNW,337,0.0,1.8,70,0.00,,,0.00,WUHU216WMR100,2013-05-06 04:51:00,
2013-05-05 23:56:00,51.3,42.3,29.99,NNW,337,0.0,0.0,71,0.00,,,0.00,WUHU216WMR100,2013-05-06 04:56:00,